STARLINK-2219 (48569 NORAD) Tracking and Keplerian Element Data

This shows tracking and keplerian element data for the satellite.

Feedback or suggestion? Click here.




ElementValue
Catalog48569
NameSTARLINK-2219
Epoch Orbit1199
Epoch Day214.72708856
Epoch Year2021
RAAN113.2552
Inclination53.0573
Eccentricity0.0002079
Argument of Perigee86.9514
Mean Anonmoly273.1713
Mean Motion15.063862
Decay Rate2.38E-06
L11 48569U 21041S 21214.72708856 .00000238 00000-0 34901-4 0 9997
L22 48569 53.0573 113.2552 0002079 86.9514 273.1713 15.06386200 11992

Live tracking and technical data element details for STARLINK-2219 (NORAD 48569). STARLINK-2219 can be tracked NOW for your location showing map with azimuth and elevation plus other details from your city location.

Track the satellite on the map from your city or location and see movement details for azimuth, elevation, latitude, longitude, range, height, and movement on the map or in text.







IsCatalogInMostPopularTable: catalog: 48569, numindb: 21
Update: records affected: 1



GetName: 48569 STARLINK-2219

Hit Count: updated at: Tue, 03 Aug 2021 22:54:10 GMT